Regional Weather Roundup
Issued by NWS

Home | Current Version | Previous Version | Text Only | Print | Product List | Glossary On
Versions: 1 2 3 4 5 6 7 8 9 10 11 12 13 14 15 16 17 18 19 20 21 22 23 24 25 26 27 28 29 30 31 32 33 34 35 36 37 38 39 40 41 42 43 44 45 46 47 48 49 50
000
ASUS45 KABQ 280010
RWRNM
NEW MEXICO REGIONAL WEATHER ROUNDUP
NATIONAL WEATHER SERVICE ALBUQUERQUE NM
600 PM MDT MON MAR 27 2017

NOTE: "FAIR" MEANS FEW OR NO CLOUDS BELOW 12,000 FEET AGL WITH NO
       SIGNIFICANT WEATHER OR OBSTRUCTIONS TO VISION.

      THIS PRODUCT IS RELEASED AS TWO VERSIONS.  ONE VERSION NEAR
      THE TOP OF THE HOUR CONTAINING PRELIMINARY DATA FROM ALBUQUERQUE
      AND OTHER STATIONS.  A FINAL VERSION WITH ADDITIONAL DATA IS
      ISSUED ABOUT 10 MINUTES AFTER THE HOUR.

NMZ501-503-504-510>518-280100-
NORTHWEST PLATEAU/NORTHCENTRAL MOUNTAINS

CITY           SKY/WX    TMP DP  RH WIND       PRES   REMARKS
FARMINGTON     FAIR      57  30  35 SE17G29   29.79S
6HR MIN TEMP:  57; 6HR MAX TEMP:  63;

LOS ALAMOS     CLOUDY    55  22  27 SW9       29.88S
SANTA FE       CLOUDY    61  22  22 SW16      29.83F
6HR MIN TEMP:  58; 6HR MAX TEMP:  65;

TAOS             N/A     54  25  32 S21G26    29.86S
ANGEL FIRE     CLOUDY    46  29  52 W13G22    29.93R

$$
NMZ402-403-502-505>509-280100-
WESTCENTRAL MOUNTAINS/SOUTHWEST MOUNTAINS

CITY           SKY/WX    TMP DP  RH WIND       PRES   REMARKS
GALLUP         FAIR      54  33  45 S16       29.85F
6HR MIN TEMP:  50; 6HR MAX TEMP:  56; 6HR PCP: TRACE;

GRANTS         CLOUDY    49  34  56 NW13G18   29.93S
SILVER CITY    PTSUNNY   66  24  20 W15G21    29.86S

$$
NMZ407-409-411-412-280100-
SOUTHERN DESERTS

CITY           SKY/WX    TMP DP  RH WIND       PRES   REMARKS
DEMING         FAIR      75  23  14 W21G26    29.79F
6HR MIN TEMP:  69; 6HR MAX TEMP:  77;

LAS CRUCES     FAIR      76  19  12 SW14      29.81F
HOLLOMAN AFB   FAIR      75  20  12 SW16      29.82F
ALAMOGORDO     FAIR      73  23  15 S21G26    29.80F
T OR C         FAIR      73  24  16 SW21G33   29.77R
6HR MIN TEMP:  66; 6HR MAX TEMP:  76;


$$
NMZ519>523-280100-
CENTRAL VALLEYS/CENTRAL HIGHLANDS

CITY           SKY/WX    TMP DP  RH WIND       PRES   REMARKS
ALBUQUERQUE    PTSUNNY   67  20  16 W9        29.80F
6HR MIN TEMP:  60; 6HR MAX TEMP:  69;

DOUBLE EAGLE   PTSUNNY   63  27  25 S20G32    29.84R
MORIARTY ARPT  CLOUDY    65  23  20 S16G22    29.84S
6HR MIN TEMP:  62; 6HR MAX TEMP:  72;

CLINES CORNERS CLOUDY    59  20  22 SW20      29.87S
6HR MIN TEMP:  57; 6HR MAX TEMP:  66;

BELEN          CLOUDY    67  26  21 W14       29.79F
6HR MIN TEMP:  62; 6HR MAX TEMP:  72;

SOCORRO        CLOUDY    71  22  15 S13       29.77S
6HR MIN TEMP:  64; 6HR MAX TEMP:  75;


$$
NMZ524>526-539-540-280100-
SOUTHCENTRAL MOUNTAINS

CITY           SKY/WX    TMP DP  RH WIND       PRES   REMARKS
RUIDOSO        FAIR      63  18  17 SW17      29.91S

$$
NMZ527>531-280100-
NORTHEAST HIGHLANDS/NORTHEAST PLAINS

CITY           SKY/WX    TMP DP  RH WIND       PRES   REMARKS
LAS VEGAS      CLOUDY    60  18  19 SW18G38   29.84S
6HR MIN TEMP:  57; 6HR MAX TEMP:  66;

RATON          CLOUDY    60  28  29 S24G31    29.78F
6HR MIN TEMP:  53; 6HR MAX TEMP:  64;

CLAYTON        FAIR      66  29  24 S20       29.81F
6HR MIN TEMP:  61; 6HR MAX TEMP:  68;


$$
NMZ532>537-280100-
EASTCENTRAL PLAINS

CITY           SKY/WX    TMP DP  RH WIND       PRES   REMARKS
TUCUMCARI      FAIR      74  24  15 SW16      29.75F
6HR MIN TEMP:  63; 6HR MAX TEMP:  76;

CANNON AFB     FAIR      71  29  20 S13       29.81F
6HR MIN TEMP:  62; 6HR MAX TEMP:  73;

CLOVIS AIRPORT FAIR      70  30  23 S17       29.83F

$$
NMZ028-029-538-280100-
SOUTHEAST PLAINS

CITY           SKY/WX    TMP DP  RH WIND       PRES   REMARKS
ROSWELL        FAIR      77  26  15 S18G30      N/A
6HR MIN TEMP:  63; 6HR MAX TEMP:  78;

ARTESIA        FAIR      77  32  19 SE23      29.75F
CARLSBAD       FAIR      81  20  10 SW18      29.75F
6HR MIN TEMP:  64; 6HR MAX TEMP:  81;

HOBBS          SUNNY     73  25  16 SE9       29.82F


$$




USA.gov is the U.S. government's official web portal to all federal, state and local government web resources and services.